Time,TemperatureF,DewpointF,PressureIn,WindDirection,WindDirectionDegrees,WindSpeedMPH,WindSpeedGustMPH,Humidity,HourlyPrecipIn,Conditions,Clouds,dailyrainin,SoftwareType,DateUTC
2013-08-24 00:00:00,54.2,53.1,30.19,NE,36,0.0,0.0,96,0.00,,,0.00,Wunderground v.1.15,2013-08-24 04:00:00,
2013-08-24 00:05:00,54.1,53.0,30.19,NE,36,0.0,0.0,96,0.00,,,0.00,Wunderground v.1.15,2013-08-24 04:05:00,
2013-08-24 00:10:00,54.1,53.0,30.19,NE,36,0.0,0.0,96,0.00,,,0.00,Wunderground v.1.15,2013-08-24 04:10:00,
2013-08-24 00:15:00,54.1,53.3,30.19,NE,36,0.0,0.0,97,0.00,,,0.00,Wunderground v.1.15,2013-08-24 04:15:00,
2013-08-24 00:24:00,54.1,53.3,30.19,NE,36,0.0,0.0,97,0.00,,,0.00,Wunderground v.1.15,2013-08-24 04:24:00,
2013-08-24 00:30:00,54.1,53.3,30.20,NE,36,0.0,0.0,97,0.00,,,0.00,Wunderground v.1.15,2013-08-24 04:30:00,
2013-08-24 00:35:00,54.0,53.2,30.20,NE,36,0.0,2.0,97,0.00,,,0.00,Wunderground v.1.15,2013-08-24 04:35:00,
2013-08-24 00:44:00,53.9,53.1,30.20,NE,36,0.0,0.0,97,0.00,,,0.00,Wunderground v.1.15,2013-08-24 04:44:00,
2013-08-24 00:50:00,53.8,53.0,30.20,NE,36,0.0,0.0,97,0.00,,,0.00,Wunderground v.1.15,2013-08-24 04:50:00,
2013-08-24 01:00:00,53.6,52.8,30.20,NE,36,0.0,0.0,97,0.00,,,0.00,Wunderground v.1.15,2013-08-24 05:00:00,
2013-08-24 01:10:00,53.5,52.7,30.21,NE,36,0.0,0.0,97,0.00,,,0.00,Wunderground v.1.15,2013-08-24 05:10:00,
2013-08-24 01:20:00,53.4,52.8,30.21,NE,36,0.0,0.0,98,0.00,,,0.00,Wunderground v.1.15,2013-08-24 05:20:00,
2013-08-24 01:30:00,53.4,52.8,30.21,NE,36,0.0,0.0,98,0.00,,,0.00,Wunderground v.1.15,2013-08-24 05:30:00,
2013-08-24 01:40:00,53.2,52.7,30.21,NE,36,0.0,0.0,98,0.00,,,0.00,Wunderground v.1.15,2013-08-24 05:40:00,
2013-08-24 01:50:00,53.0,52.5,30.21,NE,36,0.0,0.0,98,0.00,,,0.00,Wunderground v.1.15,2013-08-24 05:50:00,
2013-08-24 02:00:00,53.0,52.5,30.21,NE,36,0.0,0.0,98,0.00,,,0.00,Wunderground v.1.15,2013-08-24 06:00:00,
2013-08-24 02:10:00,52.9,52.4,30.21,NE,36,0.0,0.0,98,0.00,,,0.00,Wunderground v.1.15,2013-08-24 06:10:00,
2013-08-24 02:55:00,52.7,52.2,30.22,NE,36,0.0,0.0,98,0.00,,,0.00,Wunderground v.1.15,2013-08-24 06:55:00,
2013-08-24 03:05:00,52.7,52.2,30.22,NE,36,0.0,0.0,98,0.00,,,0.00,Wunderground v.1.15,2013-08-24 07:05:00,
2013-08-24 03:10:00,52.6,52.1,30.22,NE,36,0.0,0.0,98,0.00,,,0.00,Wunderground v.1.15,2013-08-24 07:10:00,
2013-08-24 03:20:00,52.4,51.9,30.23,NE,36,0.0,0.0,98,0.00,,,0.00,Wunderground v.1.15,2013-08-24 07:20:00,
2013-08-24 03:30:00,52.3,51.8,30.23,NE,36,0.0,0.0,98,0.00,,,0.00,Wunderground v.1.15,2013-08-24 07:30:00,
2013-08-24 03:40:00,52.3,51.8,30.23,NE,36,0.0,0.0,98,0.00,,,0.00,Wunderground v.1.15,2013-08-24 07:40:00,
2013-08-24 03:45:00,52.2,51.7,30.24,NE,36,0.0,0.0,98,0.00,,,0.00,Wunderground v.1.15,2013-08-24 07:45:00,
2013-08-24 03:55:00,51.9,51.4,30.24,NE,36,0.0,0.0,98,0.00,,,0.00,Wunderground v.1.15,2013-08-24 07:55:00,
2013-08-24 04:05:00,51.6,51.1,30.24,NE,36,0.0,0.0,98,0.00,,,0.00,Wunderground v.1.15,2013-08-24 08:05:00,
2013-08-24 04:15:00,51.3,50.8,30.24,NE,36,0.0,0.0,98,0.00,,,0.00,Wunderground v.1.15,2013-08-24 08:15:00,
2013-08-24 04:25:00,51.3,51.0,30.25,NE,36,0.0,0.0,99,0.00,,,0.00,Wunderground v.1.15,2013-08-24 08:25:00,
2013-08-24 04:35:00,51.4,51.1,30.25,NE,36,0.0,0.0,99,0.00,,,0.00,Wunderground v.1.15,2013-08-24 08:35:00,
2013-08-24 04:44:00,51.4,51.1,30.25,NE,36,0.0,0.0,99,0.00,,,0.00,Wunderground v.1.15,2013-08-24 08:44:00,
2013-08-24 04:55:00,51.2,50.7,30.26,NE,36,0.0,0.0,98,0.00,,,0.00,Wunderground v.1.15,2013-08-24 08:55:00,
2013-08-24 05:05:00,51.0,50.7,30.26,NE,36,0.0,0.0,99,0.00,,,0.00,Wunderground v.1.15,2013-08-24 09:05:00,
2013-08-24 05:15:00,51.0,50.7,30.26,NE,36,1.0,1.0,99,0.00,,,0.00,Wunderground v.1.15,2013-08-24 09:15:00,
2013-08-24 05:25:00,51.0,50.7,30.27,NE,36,0.0,0.0,99,0.00,,,0.00,Wunderground v.1.15,2013-08-24 09:25:00,
2013-08-24 05:35:00,51.1,50.8,30.27,NE,36,0.0,0.0,99,0.00,,,0.00,Wunderground v.1.15,2013-08-24 09:35:00,
2013-08-24 05:45:00,51.2,50.9,30.27,NE,36,1.0,2.0,99,0.00,,,0.00,Wunderground v.1.15,2013-08-24 09:45:00,
2013-08-24 05:50:00,51.2,50.9,30.27,NE,36,2.0,2.0,99,0.00,,,0.00,Wunderground v.1.15,2013-08-24 09:50:00,
2013-08-24 06:00:00,51.3,51.0,30.28,NE,36,0.0,0.0,99,0.00,,,0.00,Wunderground v.1.15,2013-08-24 10:00:00,
2013-08-24 06:10:00,51.4,51.1,30.28,NE,36,0.0,0.0,99,0.00,,,0.00,Wunderground v.1.15,2013-08-24 10:10:00,
2013-08-24 06:20:00,51.5,51.2,30.28,NE,36,0.0,1.0,99,0.00,,,0.00,Wunderground v.1.15,2013-08-24 10:20:00,
2013-08-24 06:30:00,51.5,51.2,30.29,NE,36,0.0,0.0,99,0.00,,,0.00,Wunderground v.1.15,2013-08-24 10:30:00,
2013-08-24 06:40:00,51.4,51.1,30.29,NE,36,2.0,2.0,99,0.00,,,0.00,Wunderground v.1.15,2013-08-24 10:40:00,
2013-08-24 06:50:00,51.2,50.9,30.29,NE,36,1.0,1.0,99,0.00,,,0.00,Wunderground v.1.15,2013-08-24 10:50:00,
2013-08-24 07:00:00,51.1,50.8,30.30,NE,36,1.0,2.0,99,0.00,,,0.00,Wunderground v.1.15,2013-08-24 11:00:00,
2013-08-24 07:05:00,51.2,50.9,30.30,NE,36,2.0,3.0,99,0.00,,,0.00,Wunderground v.1.15,2013-08-24 11:05:00,
2013-08-24 07:15:00,51.4,51.1,30.30,NE,36,0.0,1.0,99,0.00,,,0.00,Wunderground v.1.15,2013-08-24 11:15:00,
2013-08-24 07:25:00,52.4,52.4,30.31,NE,36,0.0,0.0,100,0.00,,,0.00,Wunderground v.1.15,2013-08-24 11:25:00,
2013-08-24 07:35:00,53.6,53.6,30.31,NE,36,0.0,0.0,100,0.00,,,0.00,Wunderground v.1.15,2013-08-24 11:35:00,
2013-08-24 07:45:00,54.2,54.2,30.31,NE,36,2.0,3.0,100,0.00,,,0.00,Wunderground v.1.15,2013-08-24 11:45:00,
2013-08-24 07:50:00,54.2,54.2,30.31,NE,36,3.0,3.0,100,0.00,,,0.00,Wunderground v.1.15,2013-08-24 11:50:00,
2013-08-24 08:00:00,54.5,54.5,30.31,NE,36,2.0,3.0,100,0.00,,,0.00,Wunderground v.1.15,2013-08-24 12:00:00,
2013-08-24 08:05:00,55.0,55.0,30.31,NE,36,2.0,3.0,100,0.00,,,0.00,Wunderground v.1.15,2013-08-24 12:05:00,
2013-08-24 08:15:00,55.4,55.4,30.32,NE,36,1.0,2.0,100,0.00,,,0.00,Wunderground v.1.15,2013-08-24 12:15:00,
2013-08-24 08:25:00,56.3,56.3,30.32,NE,36,1.0,3.0,100,0.00,,,0.00,Wunderground v.1.15,2013-08-24 12:25:00,
2013-08-24 08:35:00,56.9,56.9,30.32,NE,36,0.0,1.0,100,0.00,,,0.00,Wunderground v.1.15,2013-08-24 12:35:00,
2013-08-24 08:40:00,57.5,57.5,30.32,NE,36,0.0,3.0,100,0.00,,,0.00,Wunderground v.1.15,2013-08-24 12:40:00,
2013-08-24 08:50:00,58.1,58.1,30.32,NE,36,2.0,2.0,100,0.00,,,0.00,Wunderground v.1.15,2013-08-24 12:50:00,
2013-08-24 09:00:00,58.7,58.7,30.32,NE,36,0.0,0.0,100,0.00,,,0.00,Wunderground v.1.15,2013-08-24 13:00:00,
2013-08-24 09:10:00,59.0,59.0,30.33,NE,36,0.0,0.0,100,0.00,,,0.00,Wunderground v.1.15,2013-08-24 13:10:00,
2013-08-24 09:19:00,59.5,59.5,30.33,NE,36,0.0,0.0,100,0.00,,,0.00,Wunderground v.1.15,2013-08-24 13:19:00,
2013-08-24 09:25:00,59.9,59.9,30.33,NE,36,0.0,0.0,100,0.00,,,0.00,Wunderground v.1.15,2013-08-24 13:25:00,
2013-08-24 09:35:00,60.7,60.7,30.33,NE,36,0.0,0.0,100,0.00,,,0.00,Wunderground v.1.15,2013-08-24 13:35:00,
2013-08-24 09:45:00,61.4,61.4,30.33,NE,36,0.0,0.0,100,0.00,,,0.00,Wunderground v.1.15,2013-08-24 13:45:00,
2013-08-24 09:50:00,61.8,61.5,30.33,NE,36,0.0,0.0,99,0.00,,,0.00,Wunderground v.1.15,2013-08-24 13:50:00,
2013-08-24 10:00:00,63.3,62.4,30.33,NE,36,0.0,0.0,97,0.00,,,0.00,Wunderground v.1.15,2013-08-24 14:00:00,
2013-08-24 10:10:00,65.2,61.9,30.34,NE,36,1.0,5.0,89,0.00,,,0.00,Wunderground v.1.15,2013-08-24 14:10:00,
2013-08-24 10:20:00,66.1,61.1,30.34,NE,38,1.0,1.0,84,0.00,,,0.00,Wunderground v.1.15,2013-08-24 14:20:00,
2013-08-24 10:30:00,67.3,60.9,30.34,NE,38,0.0,0.0,80,0.00,,,0.00,Wunderground v.1.15,2013-08-24 14:30:00,
2013-08-24 10:40:00,68.6,61.1,30.34,NE,38,0.0,3.0,77,0.00,,,0.00,Wunderground v.1.15,2013-08-24 14:40:00,
2013-08-24 10:50:00,69.4,60.0,30.33,ENE,59,1.0,1.0,72,0.00,,,0.00,Wunderground v.1.15,2013-08-24 14:50:00,
2013-08-24 11:00:00,69.9,58.4,30.33,ENE,59,0.0,0.0,67,0.00,,,0.00,Wunderground v.1.15,2013-08-24 15:00:00,
2013-08-24 11:15:00,70.8,58.0,30.34,ESE,103,2.0,2.0,64,0.00,,,0.00,Wunderground v.1.15,2013-08-24 15:15:00,
2013-08-24 11:20:00,70.7,58.4,30.33,SE,132,2.0,2.0,65,0.00,,,0.00,Wunderground v.1.15,2013-08-24 15:20:00,
2013-08-24 11:30:00,70.6,58.3,30.34,SE,132,1.0,1.0,65,0.00,,,0.00,Wunderground v.1.15,2013-08-24 15:30:00,
2013-08-24 11:35:00,71.0,58.6,30.34,ESE,121,1.0,1.0,65,0.00,,,0.00,Wunderground v.1.15,2013-08-24 15:35:00,
2013-08-24 11:45:00,71.8,57.6,30.33,ESE,121,0.0,0.0,61,0.00,,,0.00,Wunderground v.1.15,2013-08-24 15:45:00,
2013-08-24 11:55:00,72.4,58.6,30.33,ESE,121,1.0,2.0,62,0.00,,,0.00,Wunderground v.1.15,2013-08-24 15:55:00,
2013-08-24 12:05:00,72.2,58.9,30.33,ESE,116,2.0,7.0,63,0.00,,,0.00,Wunderground v.1.15,2013-08-24 16:05:00,
2013-08-24 12:15:00,72.1,57.4,30.33,ESE,116,1.0,2.0,60,0.00,,,0.00,Wunderground v.1.15,2013-08-24 16:15:00,
2013-08-24 12:25:00,72.8,59.0,30.33,East,92,1.0,1.0,62,0.00,,,0.00,Wunderground v.1.15,2013-08-24 16:25:00,
2013-08-24 12:35:00,73.3,60.4,30.33,East,95,2.0,3.0,64,0.00,,,0.00,Wunderground v.1.15,2013-08-24 16:35:00,
2013-08-24 12:40:00,73.6,58.9,30.33,East,95,1.0,3.0,60,0.00,,,0.00,Wunderground v.1.15,2013-08-24 16:40:00,
2013-08-24 12:50:00,73.4,57.2,30.33,East,91,2.0,2.0,57,0.00,,,0.00,Wunderground v.1.15,2013-08-24 16:50:00,
2013-08-24 13:00:00,72.8,57.2,30.33,East,92,0.0,0.0,58,0.00,,,0.00,Wunderground v.1.15,2013-08-24 17:00:00,
2013-08-24 13:10:00,72.6,57.9,30.32,East,91,0.0,0.0,60,0.00,,,0.00,Wunderground v.1.15,2013-08-24 17:10:00,
2013-08-24 13:20:00,73.9,59.1,30.32,East,92,0.0,0.0,60,0.00,,,0.00,Wunderground v.1.15,2013-08-24 17:20:00,
2013-08-24 13:30:00,74.0,58.3,30.32,East,86,2.0,2.0,58,0.00,,,0.00,Wunderground v.1.15,2013-08-24 17:30:00,
2013-08-24 13:39:00,74.2,58.0,30.32,East,86,0.0,0.0,57,0.00,,,0.00,Wunderground v.1.15,2013-08-24 17:39:00,
2013-08-24 13:45:00,73.9,57.2,30.31,East,86,0.0,0.0,56,0.00,,,0.00,Wunderground v.1.15,2013-08-24 17:45:00,
2013-08-24 13:55:00,73.7,59.4,30.31,East,86,0.0,4.0,61,0.00,,,0.00,Wunderground v.1.15,2013-08-24 17:55:00,
2013-08-24 14:05:00,74.2,58.9,30.31,ENE,66,2.0,2.0,59,0.00,,,0.00,Wunderground v.1.15,2013-08-24 18:05:00,
2013-08-24 14:10:00,74.3,57.6,30.31,ENE,69,2.0,2.0,56,0.00,,,0.00,Wunderground v.1.15,2013-08-24 18:10:00,
2013-08-24 14:25:00,75.3,59.0,30.31,ENE,72,0.0,4.0,57,0.00,,,0.00,Wunderground v.1.15,2013-08-24 18:25:00,
2013-08-24 14:35:00,75.4,59.1,30.30,ENE,72,1.0,1.0,57,0.00,,,0.00,Wunderground v.1.15,2013-08-24 18:35:00,
2013-08-24 14:45:00,76.0,59.2,30.30,ENE,72,1.0,3.0,56,0.00,,,0.00,Wunderground v.1.15,2013-08-24 18:45:00,
2013-08-24 14:55:00,76.1,59.3,30.29,ENE,72,1.0,2.0,56,0.00,,,0.00,Wunderground v.1.15,2013-08-24 18:55:00,
2013-08-24 15:05:00,75.9,60.1,30.29,ENE,72,2.0,4.0,58,0.00,,,0.00,Wunderground v.1.15,2013-08-24 19:05:00,
2013-08-24 15:15:00,76.1,58.8,30.29,NE,48,1.0,1.0,55,0.00,,,0.00,Wunderground v.1.15,2013-08-24 19:15:00,
2013-08-24 15:25:00,76.5,59.1,30.29,NE,48,1.0,1.0,55,0.00,,,0.00,Wunderground v.1.15,2013-08-24 19:25:00,
2013-08-24 15:30:00,76.8,58.9,30.29,NE,48,0.0,3.0,54,0.00,,,0.00,Wunderground v.1.15,2013-08-24 19:30:00,
2013-08-24 15:40:00,76.1,58.2,30.28,ENE,57,2.0,2.0,54,0.00,,,0.00,Wunderground v.1.15,2013-08-24 19:40:00,
2013-08-24 15:50:00,76.3,59.9,30.28,ENE,57,1.0,1.0,57,0.00,,,0.00,Wunderground v.1.15,2013-08-24 19:50:00,
2013-08-24 16:00:00,76.3,58.4,30.28,NE,56,1.0,1.0,54,0.00,,,0.00,Wunderground v.1.15,2013-08-24 20:00:00,
2013-08-24 16:10:00,76.3,58.4,30.28,ENE,57,1.0,1.0,54,0.00,,,0.00,Wunderground v.1.15,2013-08-24 20:10:00,
2013-08-24 16:20:00,76.3,58.4,30.28,ENE,57,1.0,4.0,54,0.00,,,0.00,Wunderground v.1.15,2013-08-24 20:20:00,
2013-08-24 16:30:00,76.1,58.8,30.28,NE,56,1.0,3.0,55,0.00,,,0.00,Wunderground v.1.15,2013-08-24 20:30:00,
2013-08-24 16:40:00,76.1,59.3,30.28,ENE,57,1.0,1.0,56,0.00,,,0.00,Wunderground v.1.15,2013-08-24 20:40:00,
2013-08-24 16:45:00,76.3,58.4,30.28,ENE,57,1.0,1.0,54,0.00,,,0.00,Wunderground v.1.15,2013-08-24 20:45:00,
2013-08-24 16:55:00,76.9,60.5,30.28,NE,56,0.0,0.0,57,0.00,,,0.00,Wunderground v.1.15,2013-08-24 20:55:00,
2013-08-24 17:05:00,77.3,59.4,30.28,NE,56,0.0,0.0,54,0.00,,,0.00,Wunderground v.1.15,2013-08-24 21:05:00,
2013-08-24 17:15:00,76.7,59.3,30.28,ENE,57,1.0,1.0,55,0.00,,,0.00,Wunderground v.1.15,2013-08-24 21:15:00,
2013-08-24 17:55:00,77.3,59.9,30.29,ENE,57,0.0,0.0,55,0.00,,,0.00,Wunderground v.1.15,2013-08-24 21:55:00,
2013-08-24 18:05:00,77.0,59.6,30.29,NE,56,0.0,0.0,55,0.00,,,0.00,Wunderground v.1.15,2013-08-24 22:05:00,
2013-08-24 18:15:00,76.6,59.2,30.29,ENE,57,0.0,1.0,55,0.00,,,0.00,Wunderground v.1.15,2013-08-24 22:15:00,
2013-08-24 18:25:00,75.9,58.6,30.29,ENE,57,0.0,0.0,55,0.00,,,0.00,Wunderground v.1.15,2013-08-24 22:25:00,
2013-08-24 18:30:00,75.5,59.2,30.29,ENE,57,1.0,1.0,57,0.00,,,0.00,Wunderground v.1.15,2013-08-24 22:30:00,
2013-08-24 18:40:00,74.9,58.6,30.30,NE,56,0.0,0.0,57,0.00,,,0.00,Wunderground v.1.15,2013-08-24 22:40:00,
2013-08-24 18:50:00,73.8,58.6,30.30,NE,53,1.0,1.0,59,0.00,,,0.00,Wunderground v.1.15,2013-08-24 22:50:00,
2013-08-24 19:00:00,73.3,58.6,30.30,NE,53,1.0,1.0,60,0.00,,,0.00,Wunderground v.1.15,2013-08-24 23:00:00,
2013-08-24 19:10:00,72.7,58.9,30.29,NE,53,0.0,0.0,62,0.00,,,0.00,Wunderground v.1.15,2013-08-24 23:10:00,
2013-08-24 19:20:00,72.0,57.8,30.29,NE,52,0.0,0.0,61,0.00,,,0.00,Wunderground v.1.15,2013-08-24 23:20:00,
2013-08-24 19:30:00,71.3,58.1,30.29,NE,53,0.0,0.0,63,0.00,,,0.00,Wunderground v.1.15,2013-08-24 23:30:00,
2013-08-24 19:40:00,70.8,58.0,30.30,NE,52,0.0,1.0,64,0.00,,,0.00,Wunderground v.1.15,2013-08-24 23:40:00,
2013-08-24 19:50:00,69.9,57.6,30.30,NE,53,0.0,0.0,65,0.00,,,0.00,Wunderground v.1.15,2013-08-24 23:50:00,
2013-08-24 20:00:00,68.9,57.9,30.30,NE,52,0.0,0.0,68,0.00,,,0.00,Wunderground v.1.15,2013-08-25 00:00:00,
2013-08-24 20:10:00,67.9,57.4,30.30,NE,53,0.0,0.0,69,0.00,,,0.00,Wunderground v.1.15,2013-08-25 00:10:00,
2013-08-24 20:20:00,66.8,57.1,30.30,NE,52,0.0,0.0,71,0.00,,,0.00,Wunderground v.1.15,2013-08-25 00:20:00,
2013-08-24 20:30:00,65.3,56.8,30.31,NE,53,0.0,0.0,74,0.00,,,0.00,Wunderground v.1.15,2013-08-25 00:30:00,
2013-08-24 20:40:00,64.0,55.9,30.32,NE,53,0.0,0.0,75,0.00,,,0.00,Wunderground v.1.15,2013-08-25 00:40:00,
2013-08-24 20:45:00,63.4,56.1,30.32,NE,53,0.0,0.0,77,0.00,,,0.00,Wunderground v.1.15,2013-08-25 00:45:00,
2013-08-24 20:55:00,62.6,56.3,30.32,NE,53,0.0,0.0,80,0.00,,,0.00,Wunderground v.1.15,2013-08-25 00:55:00,
2013-08-24 21:00:00,62.2,56.3,30.32,NE,53,0.0,0.0,81,0.00,,,0.00,Wunderground v.1.15,2013-08-25 01:00:00,
2013-08-24 21:10:00,61.2,56.0,30.33,NE,53,0.0,0.0,83,0.00,,,0.00,Wunderground v.1.15,2013-08-25 01:10:00,
2013-08-24 21:20:00,60.2,55.3,30.33,NE,53,0.0,0.0,84,0.00,,,0.00,Wunderground v.1.15,2013-08-25 01:20:00,
2013-08-24 21:25:00,59.8,55.3,30.33,NE,53,0.0,0.0,85,0.00,,,0.00,Wunderground v.1.15,2013-08-25 01:25:00,
2013-08-24 21:35:00,59.0,54.8,30.33,NE,52,0.0,0.0,86,0.00,,,0.00,Wunderground v.1.15,2013-08-25 01:35:00,
2013-08-24 21:45:00,58.5,54.6,30.33,NE,53,0.0,0.0,87,0.00,,,0.00,Wunderground v.1.15,2013-08-25 01:45:00,
2013-08-24 21:55:00,57.9,54.4,30.33,NE,52,0.0,0.0,88,0.00,,,0.00,Wunderground v.1.15,2013-08-25 01:55:00,
2013-08-24 22:05:00,57.2,54.3,30.32,NE,53,0.0,0.0,90,0.00,,,0.00,Wunderground v.1.15,2013-08-25 02:05:00,
2013-08-24 22:40:00,55.9,53.9,30.31,NE,52,1.0,1.0,93,0.00,,,0.00,Wunderground v.1.15,2013-08-25 02:40:00,
2013-08-24 22:45:00,55.7,53.7,30.32,NE,52,0.0,1.0,93,0.00,,,0.00,Wunderground v.1.15,2013-08-25 02:45:00,
2013-08-24 22:54:00,55.5,53.5,30.32,NE,53,0.0,0.0,93,0.00,,,0.00,Wunderground v.1.15,2013-08-25 02:54:00,
2013-08-24 23:00:00,55.4,53.7,30.32,NE,52,0.0,0.0,94,0.00,,,0.00,Wunderground v.1.15,2013-08-25 03:00:00,
2013-08-24 23:10:00,55.2,53.5,30.32,NE,53,0.0,0.0,94,0.00,,,0.00,Wunderground v.1.15,2013-08-25 03:10:00,
2013-08-24 23:20:00,55.0,53.3,30.31,NE,53,0.0,0.0,94,0.00,,,0.00,Wunderground v.1.15,2013-08-25 03:20:00,
2013-08-24 23:25:00,54.9,53.2,30.31,NE,52,0.0,0.0,94,0.00,,,0.00,Wunderground v.1.15,2013-08-25 03:25:00,
2013-08-24 23:35:00,54.5,52.8,30.31,NE,53,0.0,0.0,94,0.00,,,0.00,Wunderground v.1.15,2013-08-25 03:35:00,
2013-08-24 23:45:00,54.1,52.4,30.31,NE,53,0.0,0.0,94,0.00,,,0.00,Wunderground v.1.15,2013-08-25 03:45:00,
2013-08-24 23:55:00,53.9,52.5,30.31,NE,52,0.0,0.0,95,0.00,,,0.00,Wunderground v.1.15,2013-08-25 03:55:00,